Погода в Локете

Чехия     50°11′21″N   12°45′18″E
темп.,
°C
ветер,
м/с
пор.,
м/с
влажн.,
%
обл.,
%
осадки,
мм/ч
давл.,
гПа
погр.,
м
19 апреля, пн
пн1923:00+4ссв1192100 0.0 102035
02:00+4всв119299 0.0 102049
05:00+4всв0191100 0.1 102021
08:00+5ссв1182100 0.1 1019134
11:00+8св226499 0.1 10191226
14:00+10ссв2359100 0.3 10181431
17:00+9ссв3459100 0.1 10171262
20:00+6ссв228776 0.1 101854
20 апреля, вт
вт2023:00+5с118999 0.0 101937
02:00+3с11938 0.0 101814
05:00+3зсз119599 0.0 101810
08:00+6зсз118779 0.0 1018145
11:00+10зсз226659 0.1 1016971
14:00+12зсз215599 0.4 10151465
17:00+11ссз226417 0.6 1014960
20:00+7ссз11835 0.8 101513
21 апреля, ср
ср2123:00+5ссз11895 0.0 101611
02:00+4з11915 0.0 101613
05:00+3з11935 0.0 101614
08:00+6з12831 0.0 1016162
11:00+11з346319 0.4 10141165
14:00+13сз455165 1.4 10131838
17:00+13сз454435 0.3 10121629
20:00+8ссз24705 0.3 1013191
22 апреля, чт
чт2223:00+5ссз3582100 0.0 1016328
02:00+4сз2695100 0.0 1017506
05:00+1сз3783100 0.1 1018520
08:00+1сз3766100 0.1 1019682
11:00+4зсз584785 0.0 10181310
14:00+7зсз693899 0.0 10172217
17:00+7сз694299 0.0 10182261
20:00+4зсз49666 0.0 1019913
23 апреля, пт
пт2323:00+2зсз410724 0.0 1021732
02:000зсз310847 0.0 1022542
05:00−1з268772 0.0 1023426
08:00+1зсз367754 0.1 1025632
11:00+6сз474631 0.0 10241514
14:00+8ссз563846 0.0 10242033
17:00+8ссз453988 0.0 10241923
20:00+4с23583 0.0 1026215